Location: Nantong Television Tower
(32.0188°N, 120.8512°E)
Time: 15:37:03
(UTC+08:00)

Vanguard 3 - Visible Passes

Search period start: 19 August 2017 00:00
Search period end: 29 August 2017 00:00
Orbit: 509 x 3265 km, 33.3° (Epoch: 18 August)

Date Brightness Start Highest point End Pass type
(mag) Time Alt. Az. Time Alt. Az. Time Alt. Az.
19 Aug 8.4 02:13:54 55° WNW 02:16:56 84° N 02:24:20 10° E visible
19 Aug 7.8 04:20:38 10° WNW 04:29:38 55° SSW 04:34:49 10° SE visible
19 Aug 10.1 20:12:45 10° SSW 20:30:27 41° SE 20:38:34 28° ESE visible
19 Aug 9.6 22:27:00 10° WSW 22:59:40 - ENE 22:43:19 64° SSW visible
20 Aug 8.9 00:45:18 10° W 01:04:16 64° ENE 01:11:09 10° E visible
20 Aug 8.0 03:08:52 25° W 03:15:52 81° SSW 03:22:19 10° ESE visible
20 Aug 10.6 18:59:20 10° S 19:14:22 28° SE 19:28:29 10° E visible
20 Aug 9.7 21:10:41 10° SW 21:30:09 60° SSE 21:35:26 47° ESE visible
20 Aug 9.9 23:27:28 10° WSW 23:54:48 24° E 23:57:37 10° E visible
21 Aug 8.5 01:59:25 68° WNW 02:01:21 87° N 02:09:22 10° E visible
21 Aug 8.1 04:04:24 10° WNW 04:14:08 50° SSW 04:19:44 10° SE visible
21 Aug 10.1 19:55:37 10° SSW 20:13:47 46° SE 20:27:21 16° E visible
21 Aug 9.4 22:10:09 10° WSW 22:30:06 79° SSE 22:32:03 72° ESE visible
22 Aug 9.3 00:28:36 10° W 00:50:13 49° E 00:56:04 10° E visible
22 Aug 8.2 02:54:52 35° W 03:00:20 75° SSW 03:07:19 10° ESE visible
22 Aug 10.5 18:42:02 10° SSW 18:57:40 33° SE 19:13:04 10° E visible
22 Aug 9.8 20:53:50 10° SW 21:13:35 66° SSE 21:23:36 31° E visible
22 Aug 9.5 23:10:43 10° WSW 23:41:20 14° E 23:42:22 10° E visible
23 Aug 8.7 01:29:48 10° W 01:46:01 86° E 01:54:21 10° ESE visible
23 Aug 8.4 03:50:41 17° W 03:58:32 45° SW 04:04:35 10° SE visible
23 Aug 10.1 19:38:44 10° SW 19:57:03 51° SSE 20:13:52 10° ENE visible
23 Aug 9.6 21:53:26 10° WSW 22:13:42 83° SSE 22:19:24 52° E visible
24 Aug 9.9 00:11:53 10° W 00:37:29 29° E 00:40:56 10° E visible
24 Aug 8.4 02:42:11 56° W 02:44:40 70° SSW 02:52:14 10° ESE visible
24 Aug 9.0 04:49:31 10° W 04:55:53 20° SW 05:00:24 10° S visible
24 Aug 10.5 18:25:02 10° SSW 18:40:53 37° SE 18:57:23 10° E visible
24 Aug 9.8 20:37:10 10° SW 20:56:56 71° SSE 21:10:08 21° E visible
24 Aug 9.4 22:54:04 10° W 23:14:00 87° N 23:14:45 84° NE visible
25 Aug 9.2 01:13:04 10° W 01:33:54 47° ESE 01:39:16 10° ESE visible
25 Aug 8.6 03:38:38 30° W 03:42:48 41° SW 03:49:20 10° SSE visible
25 Aug 10.1 19:22:05 10° SW 19:40:15 56° SSE 19:58:02 10° ENE visible
25 Aug 9.7 21:36:52 10° WSW 21:57:14 86° SSE 22:05:10 42° E visible
25 Aug 9.7 23:55:10 10° W 00:25:47 10° E 00:09:44 59° W visible
26 Aug 8.7 02:14:04 10° WNW 02:30:30 58° S 02:37:05 10° SE visible
26 Aug 9.3 04:35:14 13° W 04:40:04 18° SW 04:44:42 10° S visible
26 Aug 9.9 20:20:40 10° WSW 20:40:14 75° SSE 20:55:23 17° ENE visible
26 Aug 9.5 22:37:29 10° W 22:57:44 86° N 22:59:57 74° ENE visible
27 Aug 10.1 00:56:19 10° WNW 01:22:24 19° ESE 01:24:06 10° ESE visible
27 Aug 8.9 03:27:08 38° SW 03:27:08 38° SW 03:33:58 10° SSE visible
27 Aug 10.1 19:05:39 10° SW 19:23:26 61° SSE 19:42:02 10° ENE visible
27 Aug 9.8 21:20:26 10° WSW 21:40:43 89° SSE 21:49:59 38° E visible
27 Aug 9.7 23:38:30 10° W 23:54:32 66° WNW 23:54:32 66° WNW visible
28 Aug 9.6 01:57:21 10° WNW 02:18:59 26° SE 02:21:51 10° SE visible
28 Aug 9.6 04:23:42 16° SW 04:24:07 17° SW 04:28:49 10° SSW visible
28 Aug 10.0 20:04:21 10° WSW 20:23:31 80° SSE 20:39:56 16° ENE visible
28 Aug 9.6 22:20:58 10° W 22:41:24 85° N 22:44:28 70° ENE visible
